Location: Mercogliano
(40.9167°N, 14.7333°E)
Time: 03:56:04
(UTC+00:00)

USA 234 - Pass Details

Date: 18 September 2020
Orbit: 1102 x 1106 km, 123.0° (Epoch: 16 October)

Event Time Altitude Azimuth Distance (km) Brightness Sun altitude
Exits shadow 20:19:21 - 40° (NE) 3,070 5.6 -34.9°
Reaches altitude 10° 20:19:39 10° 39° (NE) 2,966 5.5 -34.9°
Maximum altitude 20:25:44 43° 330° (NNW) 1,503 4.2 -35.8°
Drops below altitude 10° 20:31:49 10° 262° (W) 2,960 5.9 -36.6°
Sets 20:34:25 0° 256° (WSW) 3,917 6.5 -37.0°
